Race Results for
MSC #2, Rabbit Valley Rally
Fruita, CO
(Event Information)
Cross Country on 05/01/2011

Note: Ranking points are NOT upgrade points. An explanation of ranking points can be found here.


Men - Wildcat

 Place Points NameCity, StateTime USAC #BibTeam
1540.00Brian Lehman   Denver, CO2:19:05.6 298376  716 Pedal Project.com
2Robb Parsons   2:27:45.3  755 LiveTrainRace.com
3Gene Sherman   2:33:48.3  686 Polar Lites

Men - Singlespeed

 Place Points NameCity, StateTime USAC #BibTeam
1449.45Jon Brown   Gunnison, CO2:17:58.9 131657  745 Alpine Ortho
2459.44Mark Thompson   Breckenridge, CO2:20:25.2 189745  665 CoMotionSports
3Paul McClain   2:28:28.7  741 
4479.42Sean McCourt   Glenwood Spgs, CO2:32:54.5 131449  509 Brown & Wills
5489.41Doug Dupuie   Denver, CO2:34:29.7 76455  557 COMotion Sports / Yeti
6499.40Michael Hayes   Carbondale, CO2:39:55.8 107669  725 Honey Stinger Trek
7John Harness   2:41:32.0  685 sock puppet
8519.38Alex Coleman   Edwards, CO2:45:16.6 7348  511 Street Swell
9Nathan Friday   2:45:19.2  750 
10Ross Deardorff   3:28:29.8  753 
11Vince Anderson   4:10:03.0  513 Cloven Hoofed Sharks
DNFCourtney Gregory   dnf  746 Street Swell

Men - CAT 3 - 1-14

 Place Points NameCity, StateTime USAC #BibTeam
1462.03Christopher Blevins   Durango, CO38:14.2 255493  562 Durango Devo
2471.17Charles Greenberg   Durango, CO40:15.4 314728  642 Durango Devo
3William G Berger   40:51.4  668 Durango Devo
4489.45Jack Tanner   Boulder, CO42:27.6 309291  576 SMBA
5498.59Keenan DesPlanques   Durango, CO43:52.1 294635  553 Durango DEVO
6507.73Devin Feilen   Durango, CO45:00.4 350046  595 Durango Devo
7516.87Derek Pansze   Durango, CO45:00.5 295484  707 Durango Devo
8526.01Adin Baird   Denver, CO45:23.2 302831  670 Co-Motion Sports
9535.15Cassidy Bailey   Lyons, CO47:09.5 289005  644 BJC
10544.29Kaden Sites   Salida, CO52:11.8 348594  710 RPM/YETI
11553.43Matthew Judson   Boulder, CO53:51.8 348598  631 Innovative Office Solutions/International Christian Cycling Club
12562.57David Harris   Louisville, CO55:46.1 297686  726 Justin's MTB Team
13River Rahe   56:33.6  709 
14580.85Mark Harris   Louisville, CO1:02:25.6 311063  625 Justins MTB Team
15589.99Malcolm Penny-Kosser   Boulder, CO2:22:53.1 347778  715 Yeti/SMBA
DNSCole Mystrom   dns  622 Durango Devo

Men - CAT 3 - 15-18

 Place Points NameCity, StateTime USAC #BibTeam
1540.00Garrett Gerchar   Boulder, CO56:27.8 344890  703 Tokyo Joes
2548.33Kurtis Barth   Boulder, CO58:42.3 317448  587 Tokyo Joes Boulder Jr Cycle
3556.66Jacob CarterGibb   Boulder, CO1:05:54.0 350018  614 Tokyo Joes
4564.99Henry Larson   Durango, CO1:08:41.4 312378  700 Durango Devo
5573.32Andrew Cunningham   Grand Junction, CO1:12:20.7 338210  589 Durango Devo
6581.65mitch labree   Colorado Springs, CO1:12:54.8 350034  608 Front Rangers
7Owen Wurtz   1:28:04.1  581 Durango Devo

Men - CAT 3 - 19-29

 Place Points NameCity, StateTime USAC #BibTeam
1540.00Tyler Smith   Durango, CO1:00:55.9 347102  594 
2Jesse Crock   1:00:58.5  551 golden wheelmen
3Casey McClure   1:07:51.7  535 
4Scott Polly   1:10:57.9  504 One Ghost Industries

Men - CAT 3 - 30-39

 Place Points NameCity, StateTime USAC #BibTeam
1Andrew Guzman   1:06:08.8  536 
2Fred Newcomer   1:12:53.1  554 Summit Velo

Men - CAT 3 - 40-99

 Place Points NameCity, StateTime USAC #BibTeam
1Howard Ralston   1:00:52.9  728 
2552.50Curt Clemetson   Aspen, CO1:11:02.0 279045  712 Dead Bros
3565.00Robert Davoust   Durango, CO1:12:15.0 350316  679 
4577.50Scott Swandal   Colorado Springs, CO1:21:55.4 244601  501 One Ghost Industries
5Eric Kosser   2:27:00.7  714 
DNFChad Devitt   dnf  602 

Men - CAT 2 - 15-18

 Place Points NameCity, StateTime USAC #BibTeam
1377.06Matthew DeBalski   Colorado Springs, CO1:17:14.2 317262  598 Front Rangers
2386.21Stephan Davoust   Durango, CO1:18:36.9 264191  611 Durango Devo
3395.36Levi Kurlander   Durango, CO1:22:34.7 292498  579 Durango Devo
4404.51Conor Matthews   Park City, UT1:26:43.5 282250  731 Cole Sport
5413.66Justin Noel   Boulder1:27:04.1 318254  564 SMBA
6422.81Evan Weinman   Steamboat Springs, CO1:28:41.9 294829  620 SSWSC/Moots
7431.96Robert Weinhold   Carbondale, CO1:29:29.2 314614  585 
8Caleb Krueger   1:29:30.4  730 Pedal Power
9450.26Garrett Sczechowski   Boulder, CO1:30:02.1 345782  735 Boulder Junior Cycling/Tokyo Joes Jr Development Team
10459.41Galen Blair   Durango, CO1:31:10.8 349432  593 Durango Devo
11468.56Alec Schaffer   Steamboat Springs, CO1:39:06.5 296377  547 SSWSC/Moots
12477.71Jacob Templin   Thornton, CO1:41:35.8 303816  517 Team Colorado Single Track
13486.86Max Neuman   Boulder, CO1:44:39.0 298476  663 SMBA
14Sam Shaw   1:47:26.3  575 CRMS
15505.16Isaac Stackonis   Salida, CO1:54:14.5 316112  607 RPM: Yeti
16514.31Riley Addington   Carbondale, CO1:56:30.7 349984  580 CRMS
17Charlie Boyne   2:01:40.5  574 CRMS
18Henry G Maxwell   2:06:06.2  724 CRMS
DNSJack Dean   Boulder, COdns 318372  530 SMBA Boulder Co

Men - CAT 2 - 19-29

 Place Points NameCity, StateTime USAC #BibTeam
1478.16Alex Pond   Steamboat Springs, CO1:16:20.4 325804  532 
2488.46Trevor Walz   Steamboat Springs, CO1:19:28.8 244662  675 Honey Stinger/Trek
3498.76Christian Levy   Centennial, CO1:20:41.2 323474  610 Yeti Grassroots
4509.06Cameron Creger   Littleton, CO1:23:38.0 319494  729 Club Treads.com / Trek
5519.36Jonathan Forbes   Carbondale, CO1:23:49.0 349824  659 First Descents
6Dan Soderlind   1:25:53.9  612 
7539.96Aaron Gonzales   Pueblo, CO1:29:17.8 348596  732 
8550.26Paul Johnson   Grand Junction, CO1:30:45.1 319900  706 livetrainrace.com
9560.56Samuel Johnson   Gunnison, CO1:31:38.8 346322  512 
10570.86Adam Degemann   Loveland, CO1:34:16.7 303585  713 Grand Sports
11581.16Justin White   Aspen, CO1:35:36.1 347218  647 COMotion Sports/Yeti

Men - CAT 2 - 30-39

 Place Points NameCity, StateTime USAC #BibTeam
1Gavvin Christian   1:16:44.5  717 Rocky Mountain/ Les Yables
2484.41Amir Alrubaiy   Denver, CO1:20:51.1 283267  544 
3Jason Meininger   1:21:14.3  669 
4493.29Jeremy Wolf   Carbondale, CO1:21:27.8 314264  653 
5Jeff Snook   1:21:37.4  560 
6502.17ian metcalf   Aspen, CO1:22:03.9 349888  561 
7506.61Kellen Tanner   Littleton, CO1:22:08.6 337116  698 Honey Stinger/Bicycle Outfitters
8Scott Reid   1:22:37.1  606 Summit Velo
9515.49Phil Hantel   Scottsdale, AZ1:22:37.5 15020  649 
10519.93Jeremy MacGray   Steamboat Springs, CO1:23:44.5 342704  559 
11524.37Kyle Henley   Golden, CO1:26:14.1 222531  533 Feedback Sports
12528.81Todd Eyberg   Council Bluffs, IA1:26:15.4 305930  514 Velo Veloce
13533.25Colin Vito   Broomfield, CO1:26:38.5 338462  570 Trek Bicycle Store
14537.69Todd Wixon   Omaha, NE1:27:29.5 340746  538 EVCCX-MONSTER
15542.13Dave Farrell   Pueblo, CO1:27:42.2 276330  549 
16Todd Ousley   1:27:45.1  654 
17Erick Lord   1:32:07.2  738 
18555.45Michael Glicksman   Boulder, CO1:33:05.5 294994  534 Colorado Singletrack
19Curry Deutsch   1:33:38.0  582 Fitness Tech
20564.33Jesse Sherwood   Silverthorne, CO1:33:40.1 316988  650 Flatwater Cycling/Bike Pedalers
21568.77Jonathan Wirth   Marine Mn1:34:29.6 206768  673 Club Treads
22Fabio Wen   1:34:53.9  671 
23577.65Phillip Stevens   Leadville, CO1:35:48.5 34096  721 Colorado Custom Wood Floors
24582.09bart spedden   Superior, CO1:36:00.9 274655  666 Neverest
25586.53Wade Washburn   Denver, CO1:41:55.7 197660  694 Club Treads
DNSSteve Warfel   Denver, COdns 295059  503 Feedback Sports

Men - CAT 2 - 40-49

 Place Points NameCity, StateTime USAC #BibTeam
1Dennis VanDerschaaf   1:23:06.1  571 Summit Velo
2458.05Rick Emerson   Berthoud Co1:25:18.8 292000  529 Bike-N-Hike.com Racing
3464.31Matthew Heydon   Steamboat Springs, CO1:26:02.9 350100  648 
4470.57Rob Bergstrom   Durango, CO1:26:33.3 274056  720 Durango Wheel Club
5476.83Vernon Harris   Louisville, CO1:26:39.9 15167  623 Justin/Titus
6Pete Pierpont   1:27:49.1  687 Summit Velo
7489.35George Euler   Grand Junction, CO1:28:44.7 330974  699 Moots/LiveTrainRace.com
8Bryan Smalley   1:29:58.2  638 Rocky Mountain Racing
9501.87roger villmow   Woodland Park, CO1:31:47.0 293337  704 LifeQuest
10508.13Scott Orr   Dillon, CO1:34:23.8 26819  734 Summit Velo
11Andrew Nolan   1:35:38.3  737 Livetrainrace.com
12520.65Andy Ramirez   Superior, CO1:36:12.6 176007  722 
13526.91Ian Jardine   Colorado Springs, CO1:36:35.7 285734  718 Team Colorado Single Track
14533.17Jeremy Templin   Thornton, CO1:37:48.3 288038  516 Team Colorado Single Track
15539.43Michael Cook   Aspen, CO1:38:32.1 277690  693 The Next Level
16545.69Thomas Jander   Arvada, CO1:39:26.1 238386  539 Golden Wheelman
17551.95Phillip Juarros   Woodland Park, CO1:41:32.6 186863  727 
18558.21Kurt Blair   Durango, CO1:43:06.0 50133  592 Durango Wheel Club

Men - CAT 2 - 50-99

 Place Points NameCity, StateTime USAC #BibTeam
1459.39Erik Judson   Golden, CO1:25:53.8 47686  632 Innovative Office Solutions/International Christian Cycling Club
2485.00Field Blevins   Durango, CO1:29:33.4 78767  563 
3510.61Allan Marvin   Denver, CO1:32:02.7 22787  566 Alpha Bicycles
4536.22Karl Semoneit   Folsom, CA1:33:50.1 164382  676 Amica's Absolute Bikes
5561.83Glen Peoples   Colorado Springs, CO1:34:41.6 152587  526 
6587.44Rich Larson   Durango, CO1:42:36.5 302077  701 Durango Wheel Club
DNSLoren Hettinger   Littleton, COdns 49896  520 Schwab Cycles

Men - CAT 1 - 15-18

 Place Points NameCity, StateTime USAC #BibTeam
1281.82Keegan Swenson   Park City, UT1:05:33.6 282247  629 Whole Athlete-Specialized
2298.85Howard Grotts   Durango, CO1:06:07.3 264839  518 Rocky Mountain Chocolate Factory/Devo Sweet Elite
3315.88Noah Talley   Payson, UT1:10:03.6 311985  656 Revolution racing/Cannondale
4332.91Sepp Kuss   Durango1:17:28.3 276598  555 Durango Devo
5349.94Gino Pastore   Durango, CO1:18:39.9 230628  605 Durango Devo
6366.97Sam Blomquist   Berthoud, CO1:20:13.9 298233  577 Niner Bikes/Smith Optics/Grand Sports
7384.00Haakon Sigurslid   Durango, CO1:21:45.4 314928  537 Devo
8401.03Christian Kloser   Vail, CO1:25:15.8 250322  680 
9418.06Elliott Saslow   Durango, CO1:26:29.7 264114  586 Durango Devo
10435.09Joe Christiansen   Lyons, CO1:31:00.9 295821  502 Redstone Cyclery

Men - CAT 1 - 19-29

 Place Points NameCity, StateTime USAC #BibTeam
1387.15Ken Benesh   Westminster, CO2:14:21.1 129356  621 Feedback Sports
2396.97Taylor Foss   Ogden, UT2:24:53.3 224531  677 KUHL
3406.79Adam Pulford   Colorado Springs, CO2:26:34.2 250055  617 CTS
4416.61Taylor Schmidt   Littleton, CO2:27:45.7 257291  603 OES/BikeSource
5426.43Kyle Stamp   Breckenridge, CO2:29:19.7 185637  736 Summit Velo
6436.25Michael Shea   Basalt, CO2:32:11.7 294673  546 ESC/Basalt Bike & Ski
7446.07David Pfeiffer   Boulder, CO2:34:35.2 293439  573 Livetrainrace.com
8455.89Tim Curry   La Crosse, WI2:35:09.6 248006  639 Alpine Ortho
9465.71Tyler Eaton   Edwards, CO2:35:31.8 293726  752 Pedal Power
10475.53Anthony Diaz   Durango, CO2:42:14.5 144576  637 Turner Bicycles
11485.35Matthew Eberly   Aurora, CO2:48:25.7 199914  760 
12495.17T. Quade Jander   Arvada, CO2:49:08.6 288891  540 Tokyo Joe's
13504.99Andrew Morrison   Denver, CO2:55:36.4 312844  740 
14514.81Justin Hemmer   Grand Junction, CO2:58:11.6 311799  705 LiveTrainRace.com
15524.63Luke Falcone   Salem, OR3:02:07.0 314394  609 CRMS/Honeystinger-Trek
16534.45Joshua Murdock   Baldwin, MD3:05:44.7 327552  682 Peak Cycles/Bikeparts.com
17544.27Derek Brinkerhoff   Lakewood, CO3:09:06.7 182630  756 Pabst/Felt/Mafia Racing

Men - CAT 1 - 30-39

 Place Points NameCity, StateTime USAC #BibTeam
1275.90Josh Whitney   Boulder, CO2:16:23.7 246841  628 Rocky Mounts~Izze
2291.29Damien Fraser   Eagle, CO2:18:58.6 213484  667 
3306.68Stephen Oliver   Denver, CO2:21:20.9 206515  651 COmotion Sports
4322.07Corey Piscopo   Steamboat Springs, CO2:26:58.2 146402  664 Steamboat Velo p/b Moots
5337.46Ryan Feagan   Omaha, NE2:27:49.7 181860  522 Midwest Cycling Community/Trek Stores of Omaha
6352.85Douglas Schuler   Boulder, CO2:28:35.3 262367  596 LenzSport / Notubes / BCS
7368.24Joshua Cullen   New Castle, CO2:28:38.7 149664  744 Honey Stinger / Trek
8383.63Ryan Schultz   Grand Junction, CO2:28:51.4 240082  599 Comotion Sports/Yeti Cycles
9399.02Jason LaPointe   Carbondale, CO2:29:04.0 188873  678 ESC-Basalt Bike & Ski
10414.41Jon Brickner   Fraser, CO2:29:41.7 115900  600 Winter Park Winery
11429.80Reed Wycoff   Salt Lake City, UT2:34:31.7 266984  742 Contender / Sam Buccu
12445.19Ben Truitt   Lakewood, CO2:35:35.1 198770  528 COMotion Sports/Yeti
13460.58Christopher Tamucci   Steamboatsprings, CO2:37:57.4 278459  749 Honey Stinger / Trek
14475.97Jeremy Young   Boulder, CO2:39:34.1 39290  658 Trek Bicycle Store
15491.36Jeff Cospolich   Breckenridge, CO2:44:01.9 138206  641 Wilderness Sports
16506.75Jason Wright   Aspen, CO2:55:12.8 227693  590 ESC/Basalt Bike & Ski
DNSJeremy Miller   Denver, COdns 246071  507 COmotion Sports
DNFEric Rubottom   Eagle, COdnf 246645  695 Bach Builders MTB

Men - CAT 1 - 40-49

 Place Points NameCity, StateTime USAC #BibTeam
1302.35Gaige Sippy   Durango, CO2:20:40.0 32817  568 Iron Horse Bicycle Classic
2327.69Dean Hill   Aspen, CO2:21:32.9 300928  747 Infinit Nutrition
3353.03Joel Mischke   Basalt, CO2:24:26.1 77727  567 Basalt Bike & Ski
4378.37Cary Dunn   Pine, CO2:27:23.8 10203  689 OES-BS
5403.71Adam Plummer   Avon, CO2:31:07.8 28311  681 Pedal Power
6429.05Patrick West   Steamboat Springs, CO2:33:52.0 37788  572 Steamboat Velo/MOOTS
7454.39Brian Nesbitt   Bailey, CO2:41:32.2 311671  688 CoMotion Sports/Yeti
8479.73David Ries   Boulder, CO2:43:58.3 184842  754 Boulder Cycle Sport
DNSKevin Minard   Dillon, COdns 210824  556 
DNSDouglas Hudson   Golden, COdns 77069  684 Feedback Sports

Men - CAT 1 - 50-99

 Place Points NameCity, StateTime USAC #BibTeam
1337.34Gary Thacker   Boulder, CO2:20:32.1 35266  525 Justins / Titus Mountain Bike Team
2357.00Joseph Burtoni   Durango, CO2:24:19.6 5632  578 Durango Land and Homes
3376.66Charlie Eckart   Aspen, CO2:26:20.8 10427  758 ESC/Basalt Bike & Ski
4396.32Mark Hershberger   Jackson, WY2:30:24.3 296741  558 Team Jackson Hole
5415.98Geoffrey (Drew) Geer   Boulder, CO2:32:05.0 157907  583 Justins Cycling
6435.64Hal Butler   Highlands Ranch, CO2:35:25.5 247110  542 FitnessTech
7455.30Paul Raemer   Centennial, CO2:44:41.6 292266  645 
8474.96Bruce Martin   Littleton, CO2:49:30.5 323838  619 Funk Cycles
9494.62Ed Ford   Golden, CO2:55:01.3 209727  696 Summit Velocity
10514.28Dawes Wilson   Vail, CO3:23:05.1 38516  672 Pedal Power

Men - Pro

 Place Points NameCity, StateTime USAC #BibTeam
1196.27Kelly Magelky   Denver, CO2:01:30.7 199904  43 Honey Stinger/Trek
2206.68Colton Andersen   Durango, CO2:05:50.4 301174  10 Rocky Mountain Chocolate Factory/Devo Sweet Elite
3217.09Brad Bingham   Steamboat Springs, CO2:06:57.3 121632  18 Moots Cycles
4227.50Mike West   Boulder, CO2:07:41.2 37786  14 Yeti Cycles
5237.91David Olson   Sturgis, SD2:09:03.0 275854  23 Quarq / Rushmore Mountain Sports
6248.32Len Zanni   Steamboat Springs, CO2:11:00.0 39400  13 Honey Stinger/ Trek
7258.73Eric Emsky   Durango, CO2:11:49.4 218345  21 Durango Land and Home PB Trek Bicycles
8269.14Tad Elliott   Durango, CO2:12:43.1 230614  12 Rocky Mountain Chocolate Factory/Devo Sweet Elite
9279.55Jordan Williford   Boulder, CO2:12:55.3 246497  Epic Endurance Cycling
10289.96Joshua Bezecny   Golden, CO2:14:14.3 114873  15 Trek Bike Store - Boulder
11300.37Benjamin Portilla   Oakland, CA2:14:31.8 208016  31 Honey Stinger/ Trek
12310.78Doug Johnson   Colorado Springs, CO2:15:23.8 17932  38 Bandwagon Racing
13321.19Miles Venzara   Durango, CO2:18:12.4 138725  30 Directory Plus/Trek/Zia
14331.60Donavan Davis   Sedona, AZ2:18:16.3 8757  17 Roosters/Bikers Edge
15342.01Jan Koles   Winter Park, CO2:18:52.0 222615  25 MAFIA/Pabst
16352.42Anthony Iannacito   Denver, CO2:20:52.0 225551  42 
17362.83Robert Sousa   Thornton, CO2:21:31.3 250172  32 Pro Cycling
18373.24Jason Holbrook   Boulder, CO2:22:07.6 211236  Yeti/Jett Pro XC Team
19383.65Joe Schneider   Durango, CO2:22:47.3 217452  27 3D Racing
20394.06Chris Brandt   Carbondale, CO2:23:55.0 115063  35 Honey Stinger/Trek
21404.47Campbell Levy   Centennial, CO2:24:43.1 116610  Yeti/Jett Pro XC Team
22414.88Nick Truitt   Breckenridge, CO2:27:34.0 198767  37 Yeti/Jett Pro XC Team
23425.29Brent Steinberg   Grand Junction, CO2:27:43.0 252120  22 LiveTrainRace.com
24435.70Mike Driver   Fruita, CO2:31:04.2 294288  28 Livetrainrace.com
25446.11Anthony Slowinski   Louisville, KY2:46:35.0 121030  20 Backwoods Racing
DNSErnie Watenpaugh   Telluride, COdns 37334  Peloton Cycles/Specialized/Honey Stinger
DNFBryan Dillon   Gunnison, COdnf 319354  16 Alpine Orthopaedics

Women - CAT 3 - 1-14

 Place Points NameCity, StateTime USAC #BibTeam
1457.80Ksenia Lepikhina   Boulder, CO48:01.7 296745  552 Tokyo Joes
2Camryn Sippy   52:39.8  569 Durango Devo
3Sierra Trout   56:41.8  548 Durango Devo
4Elle Feilen   1:21:50.3  604 Durango Devo

Women - CAT 3 - 15-18

 Place Points NameCity, StateTime USAC #BibTeam
1Rachel Harris   Louisville, CO1:46:26.3 297671  624 Justins MTB Team
2Dominique Fenichell   Boulder, CO1:46:27.3 347490  613 Tokyo Joe's

Women - CAT 3 - 19-29

 Place Points NameCity, StateTime USAC #BibTeam
1Ashlee Andersen   1:43:37.8  541 Dirt Divas

Women - CAT 3 - 30-39

 Place Points NameCity, StateTime USAC #BibTeam
1Monica Davis   Denver, CO1:35:03.8 332520  550 Giant Cycling World/RMSS
2Anaka Norfleet   Denver, CO1:36:16.0 347414  527 Dirt Divas
DNFAmy Bishop   dnf  515 

Women - CAT 2 - 19-29

 Place Points NameCity, StateTime USAC #BibTeam
1540.00Jenny Gilkerson   Denver, CO1:36:53.9 347186  697 Comotion
2Amy Arriola   1:41:34.7  615 Roosters/Biker's Edge
3Kelsey Bohanon   2:08:10.8  723 CRMS

Women - CAT 2 - 30-39

 Place Points NameCity, StateTime USAC #BibTeam
1525.89Jennifer Hill   Erie, CO1:36:23.7 253682  640 Rivet Racing
2547.26Jill Hueckman   Durango, CO1:39:18.7 350478  739 
3Shannon Cox Baker   1:40:22.3  524 Rivet SG
4Cassia Furman   1:59:56.7  543 

Women - CAT 2 - 40-99

 Place Points NameCity, StateTime USAC #BibTeam
1432.69jennifer sliney   Palisade, CO1:44:05.0 344880  652 LiveTrainRace.com
2511.34Toni Geer   Boulder, CO1:51:05.7 248595  584 Justins Cycling
3589.99Laura Nesbitt   Bailey, CO2:02:32.1 316930  521 Club Treads
DNFTricia Davis   dnf  591 Roosters/Bikers Edge

Women - CAT 1 - 15-18

 Place Points NameCity, StateTime USAC #BibTeam
1381.51AliciaRose Pastore   Durango Co1:29:01.1 219217  523 Rocky Mountain Chocolate Factory/Devo Sweet Elite
2439.12Lindsay Dye   Flagstaff, AZ1:43:07.3 296092  506 Tokyo Joe's
3496.73Ariana Dittmer   Grand Junction, CO1:45:53.9 305828  733 CoMotion Sport
4554.34Sage Kitson   Salida Co2:23:54.3 348606  505 RPM/Yeti

Women - CAT 1 - 19-29

 Place Points NameCity, StateTime USAC #BibTeam
1435.23Heidi Rentz   Moab, UT2:44:31.1 252832  759 
2451.35Mary Foss   Ogden, UT2:45:18.5 278717  674 KUHL
3467.47Sydney Fox   Dillon, CO2:50:10.7 337570  627 Yeti Grassroots
4483.59Katie Sodergren   Breckenridge, CO2:50:14.0 284503  683 COmotion Sports / Yeti
5499.71amy beisel   Gunnison, CO2:54:53.3 321990  743 Alpine Orthapedics
6515.83Lauren Catlin   Fairfax, CA3:30:24.8 256601  719 Durango Land and Homes
7531.95merilee linfield   Boulder, CO3:54:07.6 289497  519 Rocky Mounts ~ Izze
DNSMatilda Field   Durango, COdns 303435  597 

Women - CAT 1 - 30-39

 Place Points NameCity, StateTime USAC #BibTeam
1360.04Becky Sears   Steamboat Springs, CO2:45:53.0 312986  636 Rock N Roll Sports
2380.04Willa Johnson   Boulder, CO2:57:47.1 244213  588 Rivet Sports Garage
3400.04Maura McGovern   Denver, CO3:11:28.7 191585  690 Rocky Mountain Racing
4420.04Lauren Ziedonis   Aspen, CO3:16:13.0 248319  618 Hub of Aspen
5440.04Evelyn Calhoun   Denver, CO3:27:50.1 288128  601 Commotion/YETI

Women - CAT 1 - 40-99

 Place Points NameCity, StateTime USAC #BibTeam
1334.45Holly Wade   Dillon, CO2:49:56.7 228978  508 COMotion Sports/Yeti Cycles
2353.67Ellen Guthrie   Salt Lake City, UT2:52:31.8 208087  626 Revolution
3372.89Christine Irelan   Colorado Springs, CO2:54:01.6 293959  655 
4392.11Roxzanne Feagan   Omaha, NE2:55:19.8 168049  510 MWCC
5411.33Shelly Raemer   Centennial, CO2:58:50.9 294649  646 
6430.55Cindy Morse   Snowmass Village, CO3:04:45.2 267070  748 Basalt Bike and Ski
7449.77Elizabeth Overstreet Winfield   Breckenridge, CO3:04:58.9 275055  643 Wilderness Sports/Specialized
8468.99Lynne McDade   Lakewood, CO3:09:05.8 320830  500 CoMotion Sports
9488.21Rose Alford   Steamboat Springs, CO3:12:33.2 290015  662 Honey Stinger / Trek
10507.43Kathryn Judson   Arvada, CO3:19:30.0 47161  630 Innovative Office Solutions/International Christian Cycling Club
DNSTerry Stimac   Avon, COdns 321788  692 Team High Maintenance

Women - Pro

 Place Points NameCity, StateTime USAC #BibTeam
1181.83Teal Stetson-Lee   Reno, NV2:24:16.3 252205  11 Rocky Mountain Chocolate Factory/Devo Sweet Elite
2208.70Jennifer Gersbach   Durango, CO2:25:41.0 191239  19 Honey Stinger/Trek
3235.57Erin Huck   Boulder, CO2:28:16.2 194901  26 Tokyo Joes
4262.44Kelsy Bingham   South Ogden, UT2:31:22.2 311522  40 Team Jamis
5289.31Rebecca Gross   Golden, CO2:40:20.8 176014  24 Velo Bella
6316.18Jennifer Tilley   Carbondale, CO2:41:27.1 166006  41 Velo Bella
7343.05Sonya Bugbee   Lakewood, CO2:43:58.4 228971  29 Epic Endurance Racing
8369.92Sarah Rawley   Dillon, CO2:46:11.3 234957  Yeti Beti
9396.79Jill Behlen   Boulder, CO3:07:07.3 210228  34 Tokyo Joes
DNSLisa Hudson   Golden, COdns 223636  36 Feedback Sports

Report missing or incorrect license numbers

Volkswagen
USACDFShimanoSpySierra NevadaBonk Breaker
UCI USA Cycling is the official governing body for all disciplines of competitive cycling in the United States. The 501c3, membership-based organization aims both to achieve sustained success in international cycling competition and to grow competitive cycling in America while delivering an exceptional customer experience.
View Children's Online Privacy Protection Policy
US Olympic Committee